Flag for Germany Weather past 2 weeks in Bühl, Baden-Württemberg, Germany

Now
43 °F

Scattered showers. Scattered clouds.


Feels Like: 36 °F
Forecast: 42 / 46 °F
Wind: 13 mph from Northwest

Location: Karlsruhe - Baden Wurttemberg

Current Time: Mar 31, 2015 at 6:55:41 PM

Latest Report: Mar 31, 2015 at 6:20 PM


Visibility: 6 mi

Pressure: 29.92 "Hg

Humidity: 81%

Dew point: 37 °F

Location of BühlLocation

Historic Weather in Bühl — Graph

°F

Bühl temperature yesterday

Maximum temperature yesterday: 54 °F (at 3:20 PM)
Minimum temperature yesterday: 43 °F (at 10:50 PM)
Average temperature yesterday: 50 °F

Past Weeks' High & Low Weather Summary

 TemperatureHumidityPressure
High64 °F (Mar 18, 2:50 PM)100% (Mar 18, 7:50 AM)30.27 "Hg (Mar 18, 7:50 AM)
Low30 °F (Mar 24, 5:20 AM)33% (Mar 30, 5:20 PM)29.59 "Hg (Mar 29, 9:20 PM)
Average48 °F66%29.99 "Hg
* Reported Mar 16 4:20 PM — Mar 31 5:20 PM, Bühl, Weather by CustomWeather, © 2015

Note: Actual official high and low records may vary slightly from our data, if they occured in-between our weather recording intervals... More about our weather records

Advertising

Bühl weather history for previous 24 hours

 ConditionsComfort  
Time TempWeatherWind HumidityBarometerVisibility
5:20 PM
Tue, Mar 31
50 °FScattered showers. Scattered clouds.17 mph67%29.83 "HgN/A
4:50 PM50 °FScattered showers. Scattered clouds.16 mph67%29.83 "HgN/A
4:20 PM54 °FScattered showers. Passing clouds.17 mph54%29.80 "HgN/A
3:50 PM50 °FScattered showers. Scattered clouds.26 mph67%29.80 "Hg6 mi
3:20 PM52 °FScattered showers. Scattered clouds.22 mph62%29.77 "HgN/A
2:50 PM54 °FScattered showers. Partly sunny.21 mph63%29.74 "HgN/A
2:20 PM54 °FScattered showers. Partly sunny.18 mph63%29.74 "HgN/A
1:50 PM55 °FScattered showers. Partly sunny.28 mph59%29.74 "HgN/A
1:20 PM55 °FScattered showers. Partly sunny.25 mph59%29.71 "HgN/A
12:50 PM55 °FScattered showers. Scattered clouds.22 mph59%29.71 "HgN/A
12:20 PM57 °FScattered showers. Scattered clouds.25 mph55%29.71 "HgN/A
11:50 AM55 °FScattered showers. Broken clouds.30 mph59%29.71 "HgN/A
11:20 AM55 °FSprinkles. Broken clouds.23 mph63%29.68 "HgN/A
10:50 AM57 °FScattered showers. Partly sunny.28 mph59%29.68 "HgN/A
10:20 AM57 °FSprinkles. Partly sunny.25 mph63%29.65 "HgN/A
9:50 AM57 °FScattered showers. Partly sunny.31 mph59%29.62 "HgN/A
9:20 AM57 °FScattered showers. Partly sunny.30 mph59%29.62 "HgN/A
8:50 AM57 °FSprinkles. Partly sunny.29 mph59%29.62 "Hg5 mi
8:20 AM57 °FScattered showers. Partly sunny.26 mph59%29.59 "HgN/A
7:50 AM57 °FScattered showers. Passing clouds.25 mph63%29.62 "HgN/A
7:20 AM57 °FScattered showers. Passing clouds.24 mph63%29.59 "HgN/A
6:50 AM57 °FScattered showers. Passing clouds.22 mph63%29.62 "HgN/A
6:20 AM55 °FLight rain. Partly cloudy.20 mph72%29.65 "HgN/A
5:50 AM54 °FLight rain. Partly cloudy.23 mph77%29.65 "Hg6 mi
5:20 AM54 °FPassing clouds.28 mph77%29.62 "HgN/A
4:50 AM54 °FPassing clouds.28 mph77%29.65 "HgN/A
11:20 PM
Mon, Mar 30
45 °FPassing clouds.7 mph66%29.92 "HgN/A
10:50 PM43 °FClear.6 mph66%29.95 "Hg10 mi
10:20 PM48 °FPassing clouds.6 mph50%29.95 "HgN/A
9:50 PM48 °FClear.6 mph54%29.98 "Hg10 mi
9:20 PM48 °FClear.7 mph54%29.98 "Hg10 mi
8:50 PM50 °FSunny.8 mph50%29.98 "Hg10 mi
8:20 PM50 °FSunny.8 mph47%29.95 "Hg10 mi
7:50 PM52 °FSunny.12 mph41%29.95 "Hg10 mi
7:20 PM54 °FPassing clouds.14 mph38%29.92 "HgN/A
6:50 PM52 °FPassing clouds.14 mph41%29.92 "HgN/A
6:20 PM52 °FPassing clouds.13 mph38%29.89 "HgN/A
Weather by CustomWeather, © 2015

See weather overviewHow to use our weather pages